STARLINK-5549 (56360 NORAD) Tracking and Keplerian Element Data

This shows tracking and keplerian element data for the satellite.

Feedback or suggestion? Click here.




ElementValue
Catalog56360
NameSTARLINK-5549
Epoch Orbit181
Epoch Day127.00001157
Epoch Year2023
RAAN126.476
Inclination97.664
Eccentricity0.0001454
Argument of Perigee96.4994
Mean Anonmoly237.5924
Mean Motion15.68307406
Decay Rate-0.00867371
L11 56360U 23058AV 23127.00001157 -.00867371 00000+0 -86042-2 0 9992
L22 56360 97.6640 126.4760 0001454 96.4994 237.5924 15.68307406 1817



Live tracking and technical data element details for STARLINK-5549 (NORAD 56360). STARLINK-5549 can be tracked NOW for your location showing map with azimuth and elevation plus other details from your city location.







IsCatalogInMostPopularTable: catalog: 56360, numindb: 5
Update: records affected: 1



GetName: 56360 STARLINK-5549

Hit Count: updated at: Wed, 07 Jun 2023 08:57:37 GMT